[[{"header":{"parameterUnit":"m.s-1","parameterCategory":1,"la1":30.2991,"la2":30.254,"lo1":-89.0895,"lo2":-89.0444,"dy":0.0017,"dx":0.0017,"nx":28,"ny":28,"refTime":"2024-06-10T03:00:00:Z","depth":0,"parameterNumber":2,"parameterNumberName":"U-component_of_WINDS"},"data":[0,0,0,0,0,0,0,0,0,0,0,0,0,0,0,0,0,0,0,0,0,0,0,0,0,0,0,0,0,0,0,0,0,0,0,0,0,0,0,0,0,0,0,0,0,0,0,0,0,0,0,0,0,0,0,0,0,0,2.5708,2.571,0,2.5891,2.5893,2.5895,2.5909,2.5907,2.5905,2.5903,2.6095,2.6102,2.6109,0,0,0,0,0,0,0,0,0,0,0,0,0,2.5377,2.5383,2.5708,2.571,2.5713,2.5891,2.5893,2.5896,2.5909,2.5907,2.5904,2.5902,2.6093,2.6101,2.611,0,0,0,0,0,0,0,0,0,0,0,0,0,2.5536,2.5385,2.5708,2.5741,2.5745,2.589,2.5893,2.5896,2.591,2.5907,2.5904,2.5901,2.609,2.61,2.6111,2.6236,0,0,2.6143,2.6147,0,0,0,0,0,0,0,0,2.5527,2.5548,2.5734,2.5739,2.5744,2.5874,2.5847,2.6011,2.591,2.5848,2.5903,2.5899,2.6024,2.604,2.6081,2.6245,2.6254,2.6144,2.615,2.6155,2.6158,0,0,0,0,0,0,0,2.5516,2.5541,2.5781,2.5736,2.5743,2.5748,2.5768,2.5878,2.5951,2.5853,2.5854,2.5875,2.6027,2.6071,2.6086,2.6256,2.6143,2.6153,2.6159,2.6163,2.6536,2.6539,0,0,0,0,0,0,2.5498,2.5531,2.5775,2.5786,2.5626,2.5757,2.5778,2.5835,2.595,2.5964,2.5878,2.5875,2.6055,2.6074,2.6093,2.6249,2.6155,2.6164,2.617,2.6532,2.6537,2.6541,0,0,0,0,0,0,2.5491,2.5519,2.5767,2.5659,2.5691,2.5766,2.583,2.5841,2.5885,2.5969,2.5982,2.5909,2.6053,2.6078,2.6201,2.6256,2.6169,2.6179,2.6528,2.6534,2.6539,2.6562,0,0,0,0,0,0,2.5481,2.5517,2.5564,2.566,2.5697,2.5871,2.5833,2.5846,2.5902,2.5901,2.6002,2.6016,2.6052,2.6185,2.6211,2.6269,2.6187,2.6524,2.6531,2.6537,2.6556,2.6567,2.6576,0,0,0,0,0,2.5469,2.5563,2.5566,2.5595,2.5757,2.5874,2.5895,2.5934,2.5907,2.5956,2.601,2.6012,2.6245,2.6197,2.6227,2.6289,2.652,2.6529,2.6537,2.6552,2.6565,2.6576,0,0,0,0,0,0,2.5473,2.5576,2.5581,2.5708,2.5782,2.5876,2.5938,2.5946,2.6031,2.6026,2.6072,2.6095,2.6217,2.6265,2.621,2.6418,2.638,2.6395,2.6382,2.6395,2.6405,2.6391,2.6196,0,0,0,0,0,2.5488,2.5572,2.5659,2.5764,2.5801,2.5863,2.5916,2.5939,2.6018,2.605,2.6113,2.6191,2.6282,2.6341,2.6429,2.6563,2.6587,2.6621,2.663,2.6638,2.6651,2.6727,2.6744,2.6567,2.6567,2.6567,0,0,2.5521,2.5588,2.5639,2.5766,2.5826,2.5915,2.5889,2.5984,2.6051,2.6065,2.6185,2.6234,2.6324,2.6454,2.6514,2.6498,2.6705,2.6649,2.6654,2.6662,2.6737,2.6754,2.6769,2.6573,2.6572,2.6571,0,0,2.5627,2.5685,2.5779,2.584,2.5931,2.5972,2.5995,2.6088,2.6121,2.6242,2.6255,2.6337,2.6492,2.6556,2.6609,2.6742,2.6748,2.6769,2.6822,2.6896,2.691,2.6923,2.6972,2.6989,2.6781,2.6781,2.6781,0,2.5657,2.5789,2.5827,2.5922,2.5979,2.5995,2.6092,2.615,2.6265,2.6305,2.6285,2.6481,2.6543,2.6689,2.6721,2.6763,2.6792,2.6758,2.6905,2.6918,2.693,2.6978,2.6996,2.6783,2.6783,2.6783,2.6783,0,2.5823,2.5914,2.598,2.609,2.6154,2.625,2.6305,2.6366,2.6385,2.6429,2.6553,2.6628,2.6733,2.6769,2.6789,2.6919,2.6906,2.6895,2.6858,2.6948,2.6994,2.7012,2.6786,2.6785,2.6785,2.6784,0,0,2.5935,2.6066,2.6089,2.6141,2.6243,2.6316,2.6413,2.6514,2.6566,2.6646,2.6731,2.6862,2.6853,2.6913,2.6941,2.7006,2.7108,2.6987,2.699,2.7008,2.7259,2.7267,2.7287,2.7113,2.7117,2.7119,2.7252,0,2.6053,2.6225,2.6263,2.6412,2.6499,2.6516,2.6602,2.6675,2.6719,2.6801,2.6851,2.6944,2.6924,2.6961,2.7026,2.7082,2.716,2.7073,2.7194,2.7198,2.7171,2.7311,2.732,2.7441,2.727,2.7273,2.7275,0,2.6213,2.6296,2.6453,2.6546,2.6584,2.6659,2.6757,2.6834,2.6918,2.6946,2.7014,2.7035,2.714,2.7098,2.7244,2.7184,2.7236,2.7272,2.7277,2.7291,2.7242,2.7329,2.748,2.7499,2.7303,2.7301,2.7299,0,2.6281,2.6432,2.6546,2.6589,2.67,2.6753,2.6802,2.6883,2.6942,2.7028,2.7067,2.7164,2.7218,2.7293,2.7341,2.7305,2.7484,2.7445,2.7512,2.7511,2.755,2.7547,2.7712,2.7581,2.7581,2.7581,2.758,0,2.641,2.6506,2.6578,2.6649,2.6758,2.6802,2.6909,2.6959,2.7031,2.7113,2.7135,2.7212,2.7269,2.7355,2.7393,2.7509,2.7533,2.756,2.757,2.7559,2.7556,2.7594,2.7588,2.7586,2.7585,2.7584,2.7583,0,2.6504,2.6556,2.6682,2.6777,2.6803,2.6879,2.6961,2.7031,2.7076,2.718,2.7207,2.7279,2.7381,2.7436,2.7564,2.759,2.7721,2.7725,2.7692,2.7696,2.776,2.7753,2.7957,2.7986,2.7835,2.7836,2.7837,0,2.6583,2.6657,2.676,2.6815,2.6865,2.6954,2.7015,2.7062,2.7125,2.7228,2.7286,2.7389,2.7474,2.7637,2.7702,2.78,2.7808,2.7872,2.7823,2.781,2.7811,2.7806,2.7814,2.7881,2.7882,2.7884,2.7884,0,2.6718,2.674,2.6825,2.6921,2.6992,2.707,2.7147,2.7192,2.7252,2.7322,2.7426,2.7492,2.7622,2.7725,2.7829,2.7882,2.7895,2.79,2.7921,2.7911,2.7889,2.7903,2.7716,2.7895,2.7894,2.7893,2.7892,2.7892,2.6808,2.6875,2.6958,2.7053,2.7116,2.7188,2.7259,2.7313,2.74,2.7509,2.7533,2.7643,2.7729,2.7869,2.7925,2.8014,2.8001,2.8031,2.8039,2.8046,2.8049,2.7874,2.8033,2.8033,2.8032,2.8032,2.8032,0,2.6945,2.6999,2.7086,2.7193,2.7269,2.7272,2.7358,2.7422,2.7518,2.7596,2.7679,2.78,2.79,2.7973,2.8076,2.8133,2.8142,2.8159,2.8155,2.8168,2.8054,2.8026,2.815,2.815,2.815,2.815,2.815,2.815,2.7025,2.714,2.7173,2.732,2.7375,2.7482,2.7531,2.7598,2.7661,2.7794,2.7877,2.7924,2.8001,2.811,2.8203,2.8222,2.8259,2.8276,2.8296,2.8188,2.8176,2.8164,2.8138,2.8284,2.8284,2.8403,2.8404,2.8405]},{"header":{"parameterUnit":"m.s-1","parameterCategory":1,"la1":30.2991,"la2":30.254,"lo1":-89.0895,"lo2":-89.0444,"dy":0.0017,"dx":0.0017,"nx":28,"ny":28,"refTime":"2024-06-10T03:00:00:Z","depth":0,"parameterNumber":3,"parameterNumberName":"V-component_of_WINDS"},"data":[0,0,0,0,0,0,0,0,0,0,0,0,0,0,0,0,0,0,0,0,0,0,0,0,0,0,0,0,0,0,0,0,0,0,0,0,0,0,0,0,0,0,0,0,0,0,0,0,0,0,0,0,0,0,0,0,0,0,1.9244,1.9245,0,1.9349,1.9351,1.9352,1.929,1.9287,1.9284,1.9281,1.9393,1.9399,1.9404,0,0,0,0,0,0,0,0,0,0,0,0,0,1.8988,1.8993,1.9243,1.9245,1.9246,1.9349,1.9351,1.9352,1.929,1.9287,1.9283,1.9279,1.9391,1.9398,1.9405,0,0,0,0,0,0,0,0,0,0,0,0,0,1.9097,1.8995,1.9243,1.9228,1.9227,1.9349,1.9351,1.9353,1.9291,1.9286,1.9282,1.9278,1.9389,1.9397,1.9406,1.955,0,0,1.9432,1.9436,0,0,0,0,0,0,0,0,1.9091,1.9107,1.9229,1.9229,1.9229,1.9302,1.9302,1.9419,1.9292,1.9267,1.9281,1.9276,1.9367,1.9377,1.9407,1.9555,1.956,1.9433,1.9438,1.9442,1.9445,0,0,0,0,0,0,0,1.9084,1.9102,1.9285,1.923,1.923,1.9215,1.9226,1.9324,1.9341,1.9269,1.9264,1.9278,1.9366,1.9398,1.9409,1.9562,1.9433,1.9441,1.9446,1.9449,1.983,1.9834,0,0,0,0,0,0,1.9077,1.9096,1.9282,1.9289,1.9147,1.9224,1.9235,1.9283,1.934,1.9344,1.9281,1.9274,1.9386,1.9399,1.9413,1.9582,1.9442,1.945,1.9455,1.9825,1.9831,1.9836,0,0,0,0,0,0,1.9072,1.9094,1.9278,1.9191,1.9213,1.9233,1.9287,1.9287,1.932,1.9349,1.9352,1.9312,1.9383,1.94,1.9515,1.9585,1.9454,1.9462,1.9819,1.9827,1.9833,1.9924,0,0,0,0,0,0,1.9065,1.9093,1.9148,1.9193,1.9218,1.9379,1.9291,1.9293,1.9335,1.9326,1.9378,1.9383,1.9381,1.9502,1.9524,1.9595,1.9469,1.9813,1.9823,1.9831,1.9915,1.9934,1.995,0,0,0,0,0,1.9056,1.9171,1.9151,1.9174,1.9287,1.9383,1.9397,1.9392,1.9341,1.9396,1.9414,1.9381,1.9574,1.9515,1.9538,1.9613,1.9808,1.982,1.983,1.9907,1.993,1.9949,0,0,0,0,0,0,1.9136,1.9177,1.9155,1.9288,1.9332,1.9372,1.9442,1.9417,1.9478,1.9467,1.9459,1.9471,1.959,1.9613,1.9546,1.9753,1.9683,1.97,1.9734,1.9756,1.9773,1.9764,1.9476,0,0,0,0,0,1.9169,1.9242,1.9274,1.9389,1.9411,1.9423,1.9465,1.9456,1.9502,1.9521,1.9547,1.9594,1.9664,1.9712,1.9779,1.9918,1.9927,1.9981,1.9998,2.0012,2.0026,2.0098,2.0121,1.9872,1.9872,1.9872,0,0,1.9238,1.9269,1.9317,1.9405,1.9438,1.9514,1.9439,1.9524,1.958,1.9534,1.9642,1.9664,1.9715,1.9842,1.9899,1.9865,2.0097,2.0026,2.0037,2.0043,2.0111,2.0135,2.0156,1.988,1.9878,1.9877,0,0,1.9402,1.9435,1.9531,1.9565,1.9615,1.9621,1.9645,1.9688,1.9699,1.9808,1.9774,1.9841,1.9964,2.0,2.0035,2.0209,2.018,2.0231,2.0322,2.0392,2.0411,2.0429,2.0488,2.051,2.0245,2.0246,2.0246,0,1.9482,1.9595,1.9585,1.967,1.9709,1.9668,1.9765,1.9799,1.987,1.9898,1.9858,2.0008,2.0041,2.0173,2.0215,2.0246,2.027,2.0225,2.0409,2.0426,2.0442,2.0499,2.0521,2.0251,2.0251,2.025,2.0249,0,1.9689,1.9767,1.9839,1.9905,1.9952,2.0044,2.0047,2.0096,2.0082,2.0093,2.0202,2.0238,2.031,2.0341,2.0331,2.0472,2.0449,2.041,2.0339,2.0472,2.0524,2.0546,2.0259,2.0257,2.0256,2.0254,0,0,1.9908,1.9964,1.9991,2.0018,2.0069,2.013,2.0218,2.0286,2.0327,2.0377,2.0449,2.0552,2.0515,2.0555,2.0547,2.0609,2.074,2.0562,2.0563,2.0591,2.0895,2.0922,2.0947,2.0721,2.0726,2.0729,2.0889,0,2.0073,2.0226,2.0218,2.0361,2.0431,2.0393,2.0469,2.0508,2.052,2.0581,2.0594,2.0666,2.0613,2.0636,2.0696,2.0712,2.0801,2.07,2.0788,2.0791,2.0774,2.0975,2.1006,2.1156,2.091,2.0914,2.0916,0,2.0287,2.034,2.0489,2.0526,2.0555,2.0624,2.0684,2.0744,2.0787,2.079,2.0832,2.0814,2.0902,2.083,2.095,2.0882,2.0917,2.093,2.0936,2.0942,2.0861,2.0985,2.1204,2.1225,2.0949,2.0947,2.0944,0,2.0427,2.0537,2.0639,2.0665,2.0711,2.076,2.0782,2.082,2.086,2.0913,2.0938,2.1002,2.1036,2.1085,2.1083,2.1031,2.1204,2.1132,2.1208,2.1208,2.1246,2.1243,2.1471,2.1272,2.1272,2.1272,2.1271,0,2.0611,2.0704,2.0703,2.0766,2.0867,2.0857,2.0958,2.0974,2.1008,2.1073,2.1044,2.1106,2.1101,2.1163,2.1163,2.126,2.1277,2.1282,2.128,2.1283,2.1282,2.1305,2.1294,2.1278,2.1276,2.1275,2.1274,0,2.0786,2.0789,2.0898,2.0931,2.0942,2.1015,2.1043,2.1103,2.111,2.1193,2.1211,2.1224,2.1295,2.1298,2.1381,2.1381,2.1499,2.1487,2.1484,2.1481,2.1555,2.1547,2.1804,2.1836,2.1619,2.1621,2.1623,0,2.0902,2.0972,2.1011,2.1052,2.1075,2.1142,2.1182,2.1174,2.1216,2.1268,2.1321,2.1389,2.1442,2.1558,2.1574,2.1637,2.1625,2.171,2.1634,2.1633,2.1622,2.1617,2.1623,2.1724,2.1727,2.1729,2.173,0,2.1107,2.1104,2.1162,2.122,2.1268,2.1314,2.1356,2.1391,2.1388,2.1437,2.1508,2.155,2.1632,2.1699,2.1759,2.1781,2.1755,2.1754,2.1774,2.1778,2.1771,2.1773,2.1522,2.1748,2.1746,2.1745,2.1744,2.1744,2.1254,2.1312,2.1348,2.1413,2.1443,2.1483,2.1539,2.1552,2.1611,2.1676,2.1668,2.1746,2.1784,2.1862,2.1888,2.1949,2.192,2.195,2.1958,2.1965,2.1971,2.1763,2.1961,2.196,2.196,2.1959,2.1959,0,2.1455,2.1475,2.1535,2.1593,2.1643,2.1613,2.1657,2.1702,2.177,2.1808,2.186,2.194,2.2004,2.2025,2.2086,2.2131,2.212,2.2147,2.2143,2.2148,2.1995,2.197,2.2154,2.2154,2.2154,2.2154,2.2154,2.2154,2.1565,2.1661,2.1662,2.1772,2.1792,2.1867,2.1895,2.193,2.1959,2.2049,2.2102,2.2114,2.2144,2.2207,2.2263,2.2268,2.2291,2.2322,2.2321,2.2179,2.2159,2.214,2.2116,2.2328,2.2328,2.2468,2.2469,2.247]}]]